TURKSAT 4A

Last updated on Tue Oct 15 2024 00:02:39 GMT+0000 (Coordinated Universal Time)

1 39522U 14007A 24288.48747388 .00000144 00000+0 00000+0 0 9993 2 39522 0.0393 257.2403 0004314 333.7125 10.0733 1.00269469 38852
UTC large
Height (km)
Speed (km/s)
/
Latitude / Longitude
Inclination (degrees)
Orbital Period (minutes)
Azimuth
Elevation
Range (km)
Doppler Factor

Next 0 passes for location: London (51.5072 / 0.1276)

Sorry there are no passes over London.